Weather History for Wise, VA

Change the Weather History Date:

Saturday, March 16, 2013

  Actual Average Record
Temperature  
Mean Temperature 59 °F -  
Max Temperature 68 °F 50 °F 69 °F (2012)
Min Temperature 50 °F 32 °F 19 °F (1997)
Degree Days  
Heating Degree Days 6    
Growing Degree Days 9 (Base 50)    
Moisture  
Dew Point 46 °F    
Average Humidity 67    
Maximum Humidity 94    
Minimum Humidity 46    
Precipitation  
Precipitation 0.05 in - - ()
Sea Level Pressure  
Sea Level Pressure 29.84 in    
Wind  
Wind Speed 14 mph (WSW)    
Max Wind Speed 23 mph    
Max Gust Speed 32 mph    
Visibility 10 miles    
Events Rain , Thunderstorm    
Averages and records for this station are not official NWS values.
T = Trace of Precipitation, MM = Missing Value Source: NWS Daily Summary

Daily Weather History Graph

Daily Weather History Graph

Search for Another Location

Airport:

Trip Planner

Search our weather history database for the weather conditions in past years. The results will help you decide how hot, cold, wet, or windy it might be!

Date:

Astronomy

Mar. 16, 2013 Rise Set
Actual Time 7:39 AM EDT 7:38 PM EDT
Civil Twilight 7:13 AM EDT 8:04 PM EDT
Nautical Twilight 6:43 AM EDT 8:34 PM EDT
Astronomical Twilight 6:12 AM EDT 9:05 PM EDT
Moon 10:15 AM EDT (3/16) No Moon Set
Length of Visible Light 12h 51m
Length of Day
11h 59m
Waxing Crescent, 23% of the Moon is Illuminated
Mar 16
Waxing Crescent
Mar 19
First Quarter
Mar 27
Full
Apr 3
Last Quarter
Apr 10
New

Hourly Weather History & Observations

Time (EDT) Temp. Dew Point Humidity Pressure Visibility Wind Dir Wind Speed Gust Speed Precip Events Conditions
12:15 AM 50.0 °F 39.2 °F 66% 29.90 in 10.0 mi SW 10.4 mph - N/A   Mostly Cloudy
12:35 AM 51.8 °F 41.0 °F 67% 29.90 in 10.0 mi SW 15.0 mph - N/A   Mostly Cloudy
12:55 AM 51.8 °F 42.8 °F 71% 29.89 in 10.0 mi SW 11.5 mph 19.6 mph N/A   Overcast
1:15 AM 51.8 °F 42.8 °F 71% 29.88 in 10.0 mi SW 9.2 mph - N/A   Overcast
1:35 AM 51.8 °F 44.6 °F 76% 29.88 in 10.0 mi WSW 9.2 mph - N/A   Overcast
1:55 AM 51.8 °F 44.6 °F 76% 29.88 in 10.0 mi West 5.8 mph - N/A Rain Light Rain
2:35 AM 51.8 °F 44.6 °F 76% 29.85 in 10.0 mi SW 10.4 mph 19.6 mph N/A   Scattered Clouds
2:55 AM 51.8 °F 44.6 °F 76% 29.84 in 10.0 mi SW 13.8 mph - N/A   Scattered Clouds
3:15 AM 51.8 °F 44.6 °F 76% 29.83 in 10.0 mi SW 13.8 mph - N/A   Scattered Clouds
3:35 AM 51.8 °F 44.6 °F 76% 29.83 in 10.0 mi SW 13.8 mph - N/A   Mostly Cloudy
3:55 AM 53.6 °F 42.8 °F 67% 29.83 in 10.0 mi SW 18.4 mph 25.3 mph N/A   Overcast
4:15 AM 51.8 °F 42.8 °F 71% 29.82 in 10.0 mi SW 18.4 mph 21.9 mph N/A   Overcast
4:35 AM 53.6 °F 42.8 °F 67% 29.81 in 10.0 mi SW 16.1 mph 23.0 mph N/A   Scattered Clouds
4:55 AM 53.6 °F 44.6 °F 72% 29.80 in 10.0 mi SW 19.6 mph 32.2 mph N/A   Clear
5:15 AM 53.6 °F 44.6 °F 72% 29.80 in 10.0 mi SW 20.7 mph 26.5 mph N/A   Scattered Clouds
5:35 AM 53.6 °F 44.6 °F 72% 29.81 in 10.0 mi SW 23.0 mph 27.6 mph N/A   Scattered Clouds
5:55 AM 53.6 °F 44.6 °F 72% 29.81 in 10.0 mi SW 18.4 mph 31.1 mph N/A   Scattered Clouds
6:15 AM 53.6 °F 44.6 °F 72% 29.81 in 10.0 mi SW 21.9 mph 29.9 mph N/A   Scattered Clouds
6:35 AM 53.6 °F 44.6 °F 72% 29.82 in 10.0 mi SW 19.6 mph 26.5 mph N/A   Scattered Clouds
6:55 AM 53.6 °F 44.6 °F 72% 29.82 in 10.0 mi SW 18.4 mph 23.0 mph N/A   Overcast
7:15 AM 53.6 °F 44.6 °F 72% 29.83 in 10.0 mi SW 18.4 mph 26.5 mph N/A   Overcast
7:35 AM 53.6 °F 44.6 °F 72% 29.83 in 10.0 mi SW 15.0 mph 24.2 mph N/A   Overcast
7:55 AM 53.6 °F 44.6 °F 72% 29.83 in 10.0 mi SW 15.0 mph - N/A   Overcast
8:15 AM 53.6 °F 44.6 °F 72% 29.82 in 10.0 mi SW 13.8 mph 21.9 mph N/A   Mostly Cloudy
8:35 AM 53.6 °F 44.6 °F 72% 29.83 in 10.0 mi WSW 16.1 mph 23.0 mph N/A   Mostly Cloudy
8:55 AM 55.4 °F 44.6 °F 67% 29.82 in 10.0 mi SW 15.0 mph 20.7 mph N/A   Mostly Cloudy
9:15 AM 55.4 °F 44.6 °F 67% 29.83 in 10.0 mi WSW 13.8 mph 21.9 mph N/A   Scattered Clouds
9:35 AM 55.4 °F 44.6 °F 67% 29.83 in 10.0 mi SW 17.3 mph 21.9 mph N/A   Clear
9:55 AM 57.2 °F 44.6 °F 63% 29.83 in 10.0 mi SW 17.3 mph 24.2 mph N/A   Clear
10:15 AM 57.2 °F 44.6 °F 63% 29.82 in 10.0 mi SW 19.6 mph 25.3 mph N/A   Clear
10:35 AM 59.0 °F 44.6 °F 59% 29.82 in 10.0 mi SW 16.1 mph 23.0 mph N/A   Clear
10:55 AM 59.0 °F 44.6 °F 59% 29.82 in 10.0 mi WSW 18.4 mph 26.5 mph N/A   Clear
11:15 AM 60.8 °F 44.6 °F 55% 29.82 in 10.0 mi SW 16.1 mph 24.2 mph N/A   Clear
11:35 AM 60.8 °F 44.6 °F 55% 29.82 in 10.0 mi SW 20.7 mph 25.3 mph N/A   Clear
11:55 AM 60.8 °F 44.6 °F 55% 29.81 in 10.0 mi SW 17.3 mph 26.5 mph N/A   Clear
12:15 PM 60.8 °F 46.4 °F 59% 29.81 in 10.0 mi SW 18.4 mph 24.2 mph N/A   Clear
12:35 PM 62.6 °F 46.4 °F 55% 29.81 in 10.0 mi SW 16.1 mph 25.3 mph N/A   Clear
12:55 PM 62.6 °F 46.4 °F 55% 29.81 in 10.0 mi SW 16.1 mph 25.3 mph N/A   Clear
1:15 PM 64.4 °F 46.4 °F 52% 29.81 in 10.0 mi SW 19.6 mph - N/A   Clear
1:35 PM 64.4 °F 46.4 °F 52% 29.80 in 10.0 mi SW 15.0 mph 26.5 mph N/A   Clear
1:55 PM 64.4 °F 46.4 °F 52% 29.80 in 10.0 mi SSW 17.3 mph 24.2 mph N/A   Clear
2:15 PM 66.2 °F 46.4 °F 49% 29.79 in 10.0 mi SSW 17.3 mph 27.6 mph N/A   Clear
2:35 PM 66.2 °F 46.4 °F 49% 29.78 in 10.0 mi SW 16.1 mph 25.3 mph N/A   Clear
2:55 PM 68.0 °F 46.4 °F 46% 29.78 in 10.0 mi SW 19.6 mph 27.6 mph N/A   Scattered Clouds
3:15 PM 68.0 °F 46.4 °F 46% 29.77 in 10.0 mi WSW 15.0 mph 24.2 mph N/A   Mostly Cloudy
3:35 PM 68.0 °F 46.4 °F 46% 29.76 in 10.0 mi WSW 21.9 mph 26.5 mph N/A   Mostly Cloudy
3:55 PM 68.0 °F 46.4 °F 46% 29.76 in 10.0 mi SW 20.7 mph 27.6 mph N/A Thunderstorm Mostly Cloudy
4:15 PM 66.2 °F 46.4 °F 49% 29.76 in 10.0 mi SW 15.0 mph 25.3 mph N/A   Overcast
4:35 PM 64.4 °F 48.2 °F 56% 29.77 in 10.0 mi WSW 15.0 mph 20.7 mph N/A Rain Light Rain
4:55 PM 60.8 °F 50.0 °F 68% 29.80 in 10.0 mi NW 10.4 mph 19.6 mph N/A Rain , Thunderstorm Light Thunderstorms and Rain
5:15 PM 55.4 °F 53.6 °F 94% 29.81 in 7.0 mi WNW 4.6 mph - 0.05 in Rain Light Rain
5:35 PM 59.0 °F 53.6 °F 82% 29.81 in 10.0 mi WNW 13.8 mph 18.4 mph 0.05 in   Overcast
5:55 PM 59.0 °F 51.8 °F 77% 29.83 in 10.0 mi West 10.4 mph 18.4 mph 0.05 in   Overcast
6:15 PM 59.0 °F 51.8 °F 77% 29.83 in 10.0 mi West 10.4 mph 16.1 mph N/A   Overcast
6:35 PM 60.8 °F 51.8 °F 72% 29.84 in 10.0 mi WNW 10.4 mph 17.3 mph N/A   Mostly Cloudy
6:55 PM 60.8 °F 50.0 °F 68% 29.84 in 10.0 mi WNW 10.4 mph 19.6 mph N/A   Scattered Clouds
7:15 PM 60.8 °F 50.0 °F 68% 29.85 in 10.0 mi West 9.2 mph - N/A   Mostly Cloudy
7:35 PM 59.0 °F 50.0 °F 72% 29.86 in 10.0 mi West 10.4 mph - N/A   Scattered Clouds
7:55 PM 59.0 °F 50.0 °F 72% 29.87 in 10.0 mi West 8.1 mph - N/A   Scattered Clouds
8:15 PM 59.0 °F 50.0 °F 72% 29.88 in 10.0 mi West 10.4 mph - N/A   Scattered Clouds
8:35 PM 59.0 °F 50.0 °F 72% 29.89 in 10.0 mi West 9.2 mph - N/A   Clear
8:55 PM 59.0 °F 48.2 °F 67% 29.90 in 10.0 mi West 8.1 mph - N/A   Scattered Clouds
9:15 PM 59.0 °F 48.2 °F 67% 29.90 in 10.0 mi West 8.1 mph - N/A   Overcast
9:35 PM 57.2 °F 48.2 °F 72% 29.90 in 10.0 mi West 9.2 mph - N/A   Scattered Clouds
9:55 PM 59.0 °F 48.2 °F 67% 29.90 in 10.0 mi West 9.2 mph - N/A   Scattered Clouds
10:15 PM 57.2 °F 48.2 °F 72% 29.91 in 10.0 mi West 6.9 mph - N/A   Clear
10:35 PM 57.2 °F 48.2 °F 72% 29.91 in 10.0 mi West 6.9 mph - N/A   Clear
10:55 PM 57.2 °F 48.2 °F 72% 29.92 in 10.0 mi West 9.2 mph - N/A   Clear
11:15 PM 55.4 °F 48.2 °F 77% 29.92 in 10.0 mi West 6.9 mph - N/A   Clear
11:35 PM 55.4 °F 48.2 °F 77% 29.94 in 10.0 mi NW 3.5 mph - N/A   Clear
11:55 PM 55.4 °F 46.4 °F 72% 29.94 in 10.0 mi Calm Calm - N/A   Clear